Regional Weather Roundup
Issued by NWS Little Rock, AR

Home | Current Version | Previous Version | Text Only | Print | Product List | Glossary On
Versions: 1 2 3 4 5 6 7 8 9 10 11 12 13 14 15 16 17 18 19 20 21 22 23 24 25 26 27 28 29 30 31 32
000
ASUS44 KLZK 240105
RWRLZK

WEATHER ROUNDUP FOR ARKANSAS
NATIONAL WEATHER SERVICE LITTLE ROCK AR
800 PM CDT THU MAR 23 2017

NOTE: "FAIR" INDICATES FEW OR NO CLOUDS BELOW 12,000 FEET WITH NO
SIGNIFICANT WEATHER AND/OR OBSTRUCTIONS TO VISIBILITY.

ARZ001-003-010-029-240200-
NORTHWEST ARKANSAS

CITY           SKY/WX    TMP DP  RH WIND       PRES   REMARKS
FAYETTEVILLE   CLEAR     73  48  41 S16G25    29.93F
FORT SMITH     CLEAR     77  50  38 SE9       29.92F
HARRISON       CLEAR     70  47  43 S16       29.97F
BENTONVILLE    CLEAR     70  46  43 S12       29.93F
ROGERS         CLEAR     72  48  42 SE13      29.94S
SILOAM SPGS    CLEAR     72  46  40 S16G24    29.91S
HIGHFILL       CLEAR     72  46  39 S16       29.92S
SPRINGDALE     CLEAR     72  46  40 SE12G18   29.95S
$$

ARZ004-005-016-240200-
NORTH CENTRAL ARKANSAS

CITY           SKY/WX    TMP DP  RH WIND       PRES   REMARKS
BATESVILLE     CLEAR     70  54  56 SE8       30.03F
FLIPPIN        CLEAR     72  50  46 SE6       29.97S
MTN HOME       CLEAR     70  52  52 S8        29.99S
$$

ARZ040-041-240200-
WEST CENTRAL ARKANSAS

CITY           SKY/WX    TMP DP  RH WIND       PRES   REMARKS
MENA           CLEAR     77  52  41 SE6       29.98F
MOUNT IDA      CLEAR     77  45  32 VRB5      29.98S
$$

ARZ009-017-025-026-028-240200-
NORTHEAST ARKANSAS

CITY           SKY/WX    TMP DP  RH WIND       PRES   REMARKS
CORNING        FAIR      63  55  77 E9        30.07F
JONESBORO      CLEAR     69  56  62 SE7       30.06F
NEWPORT        CLEAR     68  57  68 SE12      30.04
WALNUT RIDGE   CLEAR     64  54  68 E8        30.05F
BLYTHEVILLE    CLEAR     69  54  58 SE8       30.09F
$$

ARZ022-023-033-042-044-240200-
CENTRAL ARKANSAS

CITY           SKY/WX    TMP DP  RH WIND       PRES   REMARKS
LITTLE ROCK    CLEAR     73  53  49 S7        30.02S
N LITTLE ROCK    N/A     76  54  45 S7        30.03S
JACKSONVILLE   CLEAR     76  55  47 SE6       30.01S
CONWAY           N/A     75  50  41 S9        29.99S
SEARCY         CLEAR     73  56  54 SE10      30.04F
HOT SPRINGS    CLEAR     78  48  34 SE6       30.02R
RUSSELLVILLE   CLEAR     75  45  34 SE5       29.98S
CLINTON        FAIR      68  57  68 CALM      30.01S
$$

ARZ036-240200-
EAST ARKANSAS

CITY           SKY/WX    TMP DP  RH WIND       PRES   REMARKS
WEST MEMPHIS   CLEAR     67  54  63 SE9       30.08S
$$

ARZ050-053-066-070-073-240200-
SOUTHWEST ARKANSAS

CITY           SKY/WX    TMP DP  RH WIND       PRES   REMARKS
ARKADELPHIA    FAIR      72  53  51 S6        30.01S
CAMDEN         LGT RAIN  75  45  33 SE6       30.03S
TEXARKANA      CLEAR     77  49  37 S12       30.00S
EL DORADO      CLEAR     75  46  35 SE6       30.04S
DE QUEEN       CLEAR     78  49  35 S7        29.94F
$$

ARZ056-057-069-240200-
SOUTHEAST ARKANSAS

CITY           SKY/WX    TMP DP  RH WIND       PRES   REMARKS
PINE BLUFF     CLEAR     73  54  51 SE10      30.04S
STUTTGART      CLEAR     73  50  43 SE10      30.05F
MONTICELLO     CLEAR     76  51  41 S5        30.06S

$$






USA.gov is the U.S. government's official web portal to all federal, state and local government web resources and services.